Lid_Strength_Index
6 5 4 2 2 2 2 1 1 1 2 2 2 2 2 2 1 2 1 1 2 2 2 2 2 2 2 2 3 3 3 4 5 5 8 11 12 12 12 12 11 11 11
7 5 5 4 3 2 2 2 2 2 2 2 2 2 2 1 1 1 1 1 2 3 3 3 3 3 3 3 3 3 4 3 5 5 12 14 13 13 13 13 12 12 11
7 7 4 4 3 3 2 2 2 2 2 2 2 2 2 2 2 2 2 2 2 3 3 4 3 3 4 4 4 4 4 4 4 5 10 14 13 13 14 13 14 13 11
7 7 7 3 3 2 2 2 2 2 2 1 1 2 2 2 2 2 2 2 3 3 3 3 3 4 4 4 4 4 5 5 8 10 14 15 15 15 15 15 15 14 13
6 7 7 6 3 3 5 4 4 4 5 5 3 3 2 3 3 3 2 2 3 3 5 5 5 7 10 7 6 6 8 10 14 13 14 15 14 15 15 15 15 14 13
7 6 6 7 7 6 6 7 7 7 7 7 7 8 7 7 10 10 8 5 5 6 7 9 11 13 11 11 10 9 8 9 13 13 14 13 14 14 14 15 15 15 15
8 6 8 8 9 9 9 9 9 8 8 9 9 9 9 9 9 9 10 7 7 8 9 11 12 12 11 11 10 10 11 9 9 11 12 12 13 13 14 14 14 13 13
9 8 9 10 11 11 11 10 10 10 10 10 10 10 10 11 10 9 10 9 10 10 11 11 12 12 12 11 12 13 13 13 12 12 12 12 13 13 13 12 12 13 13
11 11 11 11 11 11 11 11 10 11 11 11 12 13 13 12 10 10 11 12 13 13 13 12 12 12 11 10 13 14 14 14 11 10 10 10 10 11 11 12 13 13 14
12 12 12 11 11 11 10 11 13 13 13 13 13 14 14 13 11 10 11 13 14 14 14 13 13 13 11 11 13 13 14 14 14 14 14 12 12 11 11 12 12 13 13
14 13 12 12 12 11 11 13 13 13 13 13 13 14 13 13 12 11 11 13 13 14 14 14 14 11 11 11 11 13 13 13 13 13 13 13 13 13 13 12 12 12 13
15 15 13 12 12 12 12 12 13 13 13 13 14 14 14 14 13 11 11 12 12 13 14 14 13 11 11 11 12 11 11 13 13 13 13 14 14 14 13 13 13 12 12
17 16 13 12 12 13 13 13 13 12 12 13 14 14 14 14 14 12 12 11 12 13 13 12 11 11 11 11 11 11 13 13 13 14 14 15 15 14 13 13 13 13 13
20 17 14 12 12 12 13 13 13 13 13 13 14 14 15 14 14 14 14 14 13 13 13 13 12 12 12 13 14 14 14 14 14 14 15 15 14 16 15 14 14 14 15
20 18 15 13 12 14 14 14 15 14 13 13 13 14 14 15 14 13 14 14 14 14 14 14 14 14 15 15 14 14 15 15 16 17 16 15 15 15 15 14 14 15 16
20 17 14 14 14 14 15 14 12 13 12 12 12 13 14 13 12 13 13 12 13 13 15 15 16 16 16 15 16 16 16 15 15 14 15 15 15 15 16 15 16 18 18
20 17 15 15 15 15 15 16 17 15 12 12 12 12 12 12 12 13 13 13 13 14 16 16 16 16 16 17 17 16 17 17 16 16 16 16 16 16 16 16 16 16 16
20 19 17 17 16 15 15 16 16 18 19 19 16 16 14 13 12 12 13 14 16 15 16 17 17 16 16 17 17 17 17 16 16 16 16 16 16 16 16 16 16 17 17
20 20 19 19 18 18 17 18 18 19 21 22 21 20 19 16 16 17 17 20 20 21 20 20 20 19 19 19 18 18 18 18 18 18 18 17 17 17 18 18 17 18 20
21 21 21 21 21 21 20 20 21 22 23 23 23 22 22 21 23 23 23 23 23 23 23 23 22 22 22 21 21 20 20 20 20 20 20 21 21 20 20 20 20 20 21
22 22 22 22 23 23 23 23 23 23 24 24 25 21 20 24 24 24 24 24 24 24 24 24 24 23 22 23 22 22 22 22 22 22 22 23 23 24 23 22 22 22 24
23 23 24 24 24 24 24 23 24 24 25 25 25 24 21 24 25 24 24 25 24 24 24 25 25 24 24 24 24 24 24 24 23 23 23 23 24 25 25 25 26 26 26
24 24 24 24 24 24 25 25 26 26 26 26 25 25 25 25 25 25 25 25 25 25 25 25 26 26 25 25 24 25 25 25 25 25 26 27 28 27 28 28 27 28 28
24 24 24 24 24 25 25 25 25 25 25 25 26 26 25 25 26 25 25 25 25 26 26 26 26 26 26 26 26 26 26 26 26 26 27 28 28 29 30 30 28 29 27
24 24 25 25 25 25 25 25 25 25 25 25 25 26 25 26 26 26 26 26 26 27 27 27 27 27 27 27 28 28 27 26 27 27 30 29 29 29 29 29 28 29 28
24 25 25 25 25 26 26 26 26 26 27 26 26 26 26 27 27 27 27 28 28 28 28 27 27 27 28 28 27 26 25 24 25 26 29 30 30 29 29 28 29 28 28